This demonstration page uses our WeatherBlox Daily Observations layout. Learn more.

Left ArrowRight Arrow

36.17497, -115.13722

Hourly Observations for September 30, 2015

Temp ( °F °C ) Dew Point ( °F °C ) Humidity (%) Winds ( mph kmh ) Pressure ( in mb ) Visibility ( mi km ) Precip ( " mm )
12:53 am 00:53 Clear 79 26.1 44 6.7 29 29 NW 6 9 29.83 1010 10 16 N/A
1:53 am 01:53 Clear 77 25 37 2.8 24 24 N 7 11 29.83 1010 10 16 N/A
2:53 am 02:53 Clear 76 24.4 38 3.3 25 25 N 7 11 29.83 1010 10 16 N/A
3:53 am 03:53 Clear 75 23.9 40 4.4 28 28 NW 6 9 29.82 1010 10 16 N/A
4:53 am 04:53 Clear 74 23.3 43 6.1 33 33 NW 7 11 29.83 1010 10 16 N/A
5:53 am 05:53 Clear 73 22.8 44 6.7 35 35 NW 3 6 29.84 1011 10 16 N/A
6:53 am 06:53 Sunny 74 23.3 43 6.1 33 33 N N/A 29.86 1011 10 16 N/A
7:53 am 07:53 Sunny 76 24.4 42 5.6 30 30 NNW 3 6 29.88 1012 10 16 N/A
8:53 am 08:53 Sunny 82 27.8 41 5 23 23 N 3 6 29.89 1012 10 16 N/A
9:53 am 09:53 Sunny 85 29.4 38 3.3 19 19 N N/A 29.90 1013 10 16 N/A
10:53 am 10:53 Sunny 89 31.7 36 2.2 15 15 SSE 6 9 29.89 1012 10 16 N/A
11:53 am 11:53 Sunny 92 33.3 35 1.7 13 13 E 6 9 29.88 1012 10 16 N/A
12:53 pm 12:53 Sunny 95 35 36 2.2 13 13 ESE 8 13 29.85 1011 10 16 N/A
1:53 pm 13:53 Sunny 97 36.1 40 4.4 14 14 E 7 11 29.82 1010 10 16 N/A
2:53 pm 14:53 Sunny 98 36.7 41 5 14 14 SE 7 11 29.79 1009 10 16 N/A
3:53 pm 15:53 Sunny 99 37.2 43 6.1 15 15 E 16 26 29.78 1009 10 16 N/A
4:53 pm 16:53 Sunny 99 37.2 42 5.6 14 14 ESE 13 20 29.76 1008 10 16 N/A
5:53 pm 17:53 Sunny 96 35.6 40 4.4 14 14 SE 16 26 29.76 1008 10 16 N/A
6:53 pm 18:53 Clear 94 34.4 39 3.9 15 15 SE 10 17 29.77 1008 10 16 N/A
7:53 pm 19:53 Clear 93 33.9 36 2.2 13 13 S 13 20 29.78 1009 10 16 N/A
8:53 pm 20:53 Clear 91 32.8 37 2.8 15 15 S 12 19 29.80 1009 10 16 N/A
9:53 pm 21:53 Clear 88 31.1 37 2.8 16 16 SSW 5 7 29.81 1010 10 16 N/A
10:53 pm 22:53 Clear 85 29.4 35 1.7 17 17 SSE 6 9 29.82 1010 10 16 N/A
11:53 pm 23:53 Clear 83 28.3 35 1.7 18 18 VRB 3 6 29.82 1010 10 16 N/A

Powered by AerisWeather